sat.trackr.live / text

‹ back to catalog

STARLINK-30567

NORAD 58067 · 2023-158S

PAYLOAD ACTIVE UNKNOWN

§ Identity

Operator
Country
US
Launch date
2023-10-13
Launch site
AFETR
Launch vehicle
Mass (kg)
RCS (m²)

Purposes: comms

External: N2YO · Heavens-Above · Gunter

§ Orbital elements

Epoch: 2026-09-19T14:35:16.612224Z

Period
94.27 min
Inclination
43.0042°
Eccentricity
0.0001289
Mean motion
15.27576177 rev/d
Perigee alt
482.2 km
Apogee alt
483.9 km
Semi-major
6,861.2 km
B*
4.1997e-6
RAAN
12.1943°
Arg perigee
280.7576°
Mean anomaly
79.3130°
Rev number
16,322

§ Raw data

STARLINK-305671 58067U 23158S   26262.60783116 -.00000147  00000+0  41997-5 0  99922 58067  43.0042  12.1943 0001289 280.7576  79.3130 15.27576177163221

JSON: /api/v1/satellites/58067 · /tle

For live sub-satellite position, see the globe view (requires WebGL).

§ Visibility from observer

Set your observer location to see the next 7 days of passes ≥ 10°. The values pass through the URL so the page stays shareable.

No JS? Fill the form by hand. The geolocation button needs JavaScript.